Regional Weather Roundup
Issued by NWS

Home | Current Version | Previous Version | Text Only | Print | Product List | Glossary Off
Versions: 1 2 3 4 5 6 7 8 9 10 11 12 13 14 15 16 17 18 19 20 21 22 23 24 25 26 27 28 29 30 31 32 33 34 35 36 37 38 39 40 41 42 43 44 45 46 47 48 49 50

240
ASUS44 KLIX 270105
RWRLA
LOUISIANA WEATHER ROUNDUP
NATIONAL WEATHER SERVICE NEW ORLEANS LA
800 PM CDT TUE AUG 26 2014

NOTE: "FAIR" INDICATES FEW OR NO CLOUDS BELOW 12,000 FEET WITH NO
      SIGNIFICANT WEATHER AND/OR OBSTRUCTIONS TO VISIBILITY.
      SKY/WX - SKY CONDITION AND SIGNIFICANT WEATHER.
      TMP - AIR TEMPERATURE.    DP   - DEWPOINT TEMPERATURE.
      RH  - RELATIVE HUMIDITY.  PRES - PRESSURE.
      HX  - HEAT INDEX.         WCI  - WIND CHILL INDEX.

*  THESE STATIONS ARE NOT NWS OR FAA STATIONS AND ARE NOT UNDER
   NWS QUALITY CONTROL.

LAZ040-048-061>063-065-066-069-270200-
SOUTHEAST LOUISIANA

CITY           SKY/WX    TMP DP  RH WIND       PRES   REMARKS
N.O. AUDUBON     N/A     85  72  66 MISG        N/A
N.O. INTL ARPT CLOUDY    84  70  62 E6        29.96R
N.O. LAKEFRONT CLOUDY    84  73  69 E8        29.97R
N.O. DOWNTOWN* FAIR      84  70  61 SE3       29.97R
SLIDELL        CLOUDY    82  73  74 SE3       29.96S
BATON ROUGE    MOCLDY    81  74  79 E3        29.96R
BOOTHVILLE     CLOUDY    83  75  77 E9        29.95S
BELLE CHASSE   CLOUDY    82  71  69 E6        29.95S
BOGALUSA*      FAIR      78  71  80 CALM      29.98S
GALLIANO*      NOT AVBL
NEW ROADS*     FAIR      78  72  82 CALM      29.96S
GONZALES*      FAIR      80  79  98 CALM      29.95S
HAMMOND*       MOCLDY    82  72  69 CALM      29.98S
HOUMA*         CLOUDY    80  70  71 E5        29.95S
PORT FOURCHON* PTCLDY    82  75  78 E12       29.95F

$$

LAZ041-044-053-054-270200-
SOUTHWEST LOUISIANA

CITY           SKY/WX    TMP DP  RH WIND       PRES   REMARKS
LAKE CHARLES   CLOUDY    83  74  74 E5        29.95R
LAFAYETTE      CLOUDY    81  75  82 CALM      29.96R
PATTERSON        N/A     79  75  89 CALM      29.99R
SALT POINT       N/A     80  77  90 CALM      29.94R
NEW IBERIA     CLOUDY    80  77  90 CALM      29.97R
CHENAULT AIRPK NOT AVBL

$$

LAZ027-028-270200-
CENTRAL LOUISIANA

CITY           SKY/WX    TMP DP  RH WIND       PRES   REMARKS
FORT POLK      MOCLDY    84  70  61 CALM      29.97R
ALEXANDRIA INT MOCLDY    82  68  62 NE5       29.96R
ALEXANDRIA     MOCLDY    78  72  81 CALM      29.98R

$$

LAZ001-002-270200-
NORTHWEST LOUISIANA

CITY           SKY/WX    TMP DP  RH WIND       PRES   REMARKS
SHREVEPORT     PTCLDY    87  69  54 E8        29.97R
BARKSDALE AFB  PTCLDY    84  70  61 E5        29.98R
DTN SHREVEPORT PTCLDY    85  70  60 E3        29.97R

$$

LAZ014-016-270200-
NORTHEAST LOUISIANA

CITY           SKY/WX    TMP DP  RH WIND       PRES   REMARKS
MONROE         CLEAR     82  67  60 CALM      30.00R
TALLULAH       PTCLDY    77  68  73 N3        30.00R

$$




USA.gov is the U.S. government's official web portal to all federal, state and local government web resources and services.